Wind_Speed
6 6 6 5 5 5 5 7 8 6 8 11 11 11 13 15 15 15 15 14 14 16 17 16 17 19 19 19 21 21 22 22 23 23 24 26 27 27 27 26 25 26 26 26 27 28 28 27 27 26 27 28 28 29 29 30 29 27 27 28 28 26 26 28 30 32 31 28 27 28 27 27 27 25 25 25 25 24 24 23 22 21 21 23 23
6 7 7 6 6 6 5 7 7 7 8 10 10 11 13 15 15 15 14 15 15 16 17 17 19 20 20 21 22 23 24 24 25 27 27 28 28 29 28 26 24 25 25 26 27 28 28 29 30 30 30 31 31 30 30 31 30 29 28 28 28 28 28 28 29 31 32 29 27 28 27 26 26 26 26 26 25 24 24 23 22 20 20 22 23
7 8 7 5 6 6 5 6 7 8 9 9 10 11 13 15 15 15 15 16 16 17 18 19 20 20 21 23 24 24 26 27 27 28 27 27 28 27 25 24 24 25 26 28 29 29 30 31 31 32 32 33 34 32 32 32 31 30 29 28 29 29 30 30 31 32 32 31 28 27 27 26 27 27 26 25 25 24 24 23 22 20 19 21 24
8 9 7 5 6 6 6 6 8 9 9 9 11 12 13 15 15 15 16 17 17 17 19 21 22 22 22 23 25 26 28 28 29 29 28 27 27 26 25 26 27 28 28 29 31 31 31 32 32 33 33 34 35 35 34 34 33 32 32 31 30 31 31 31 32 32 33 33 32 30 29 28 28 27 26 25 25 24 23 22 21 19 19 22 24
8 8 8 7 6 6 6 7 7 8 9 10 10 11 13 14 15 16 16 17 18 19 20 22 22 22 22 25 28 29 29 29 28 27 26 25 25 27 29 30 31 32 33 34 33 33 33 34 35 35 34 34 35 36 36 35 35 35 35 34 33 33 32 31 32 32 34 35 35 33 30 29 28 27 25 25 25 24 23 22 21 20 19 21 22
7 7 8 8 6 6 6 6 7 9 10 10 11 12 14 15 16 17 16 17 18 19 21 22 21 23 26 28 29 29 27 26 25 25 25 25 25 27 30 32 34 36 38 39 37 35 35 36 36 36 36 36 35 36 36 36 38 38 37 37 36 36 36 35 34 34 35 36 35 33 30 30 30 28 26 25 25 25 24 23 21 19 17 19 21
7 7 8 7 5 5 6 7 8 10 9 10 12 13 13 15 16 17 17 17 18 20 21 23 25 29 30 28 26 25 24 24 24 25 26 27 28 29 31 33 36 38 40 40 38 36 35 35 35 35 36 36 36 36 36 36 37 38 38 37 37 37 38 37 37 36 36 36 34 32 31 31 30 29 26 25 25 24 23 22 21 20 20 22 24
7 5 6 6 6 6 7 8 9 9 9 11 12 12 12 13 15 17 18 18 20 23 25 27 29 29 26 24 24 23 23 23 25 26 27 29 30 31 32 34 37 40 40 38 35 33 33 33 33 34 34 35 35 36 37 38 39 40 40 40 40 40 40 39 38 36 35 35 34 33 31 30 30 29 26 25 25 24 22 22 23 24 24 23 22
5 5 4 4 5 6 7 8 8 7 8 10 11 11 12 14 16 19 20 21 23 25 25 26 26 25 24 23 22 22 22 24 26 27 28 30 32 32 35 38 40 42 42 37 32 30 31 32 33 33 34 34 35 35 36 37 39 41 41 41 41 42 42 41 40 38 37 37 36 34 32 31 30 28 26 25 24 24 23 23 24 24 22 21 20
3 3 2 3 5 7 8 7 6 7 8 10 11 12 14 16 19 21 21 22 23 23 24 24 24 23 22 21 21 21 22 23 24 27 29 31 33 35 38 39 39 41 41 36 31 30 30 30 31 32 33 33 34 34 34 35 35 37 38 38 37 37 38 38 38 38 37 37 36 34 32 32 30 28 28 26 24 24 24 23 23 22 22 23 23
2 2 3 4 6 8 7 5 6 9 10 11 13 15 17 19 19 19 20 22 22 22 23 23 22 21 21 20 20 21 22 23 25 27 29 31 34 36 37 36 37 40 38 33 30 30 30 31 31 32 32 32 33 36 36 36 35 35 36 36 36 36 36 36 36 37 36 36 36 34 32 32 30 29 28 26 25 25 24 22 22 24 23 23 21
2 3 4 4 6 7 7 7 8 11 12 12 14 17 18 16 16 18 21 22 21 21 23 22 21 20 20 19 20 20 22 24 26 28 30 32 34 34 34 36 39 39 35 31 31 32 34 37 36 34 33 33 36 39 39 39 38 37 36 35 35 36 35 35 35 35 35 37 37 35 33 33 32 30 28 26 26 26 25 23 23 24 23 21 20
4 3 3 4 5 8 9 10 11 12 12 13 15 17 15 14 17 21 21 19 19 21 21 20 19 19 19 19 20 21 23 24 27 29 30 31 32 33 35 38 40 37 32 30 31 33 37 40 40 38 36 33 33 36 38 39 39 38 38 36 34 34 33 33 33 33 33 35 38 38 36 34 33 31 29 26 25 26 26 26 25 25 24 23 23
3 3 3 5 7 9 10 10 11 11 10 12 14 13 13 17 21 20 17 17 19 20 19 18 18 18 19 19 20 21 23 25 28 29 29 30 33 35 38 39 38 35 33 32 33 35 37 39 40 41 40 36 33 35 38 40 42 42 41 39 37 35 33 31 30 31 32 33 37 39 38 37 36 35 33 29 27 28 29 29 26 25 25 25 26
3 5 5 6 8 9 9 8 9 9 10 12 11 11 15 19 19 16 15 18 19 17 16 17 17 18 19 18 19 22 25 26 27 28 30 33 36 37 38 39 38 37 37 37 36 37 39 40 40 40 39 36 33 35 38 41 44 46 45 43 41 39 37 33 30 29 30 31 34 36 37 38 40 39 36 32 31 31 31 29 26 26 27 29 30
4 6 6 6 7 6 6 6 8 10 11 11 10 14 18 18 14 14 17 17 16 15 15 17 17 18 18 18 19 22 24 25 27 30 32 35 36 37 39 41 41 41 40 40 40 40 40 39 38 37 36 34 32 34 38 40 43 45 46 46 45 44 42 39 36 32 31 30 30 31 33 37 40 40 35 30 29 29 28 28 27 28 30 31 32
6 6 4 5 5 3 3 4 8 12 12 10 14 18 17 13 12 15 16 15 14 15 16 16 17 17 18 18 18 21 24 26 28 31 33 35 37 40 42 42 42 42 42 42 42 42 41 37 34 34 34 33 33 35 38 40 43 46 48 50 50 50 47 43 40 37 34 33 31 31 34 37 41 41 35 30 29 28 29 31 32 32 32 31 30
6 5 4 4 5 4 3 6 11 14 12 12 16 17 12 10 13 15 14 14 14 15 15 15 16 16 16 16 17 19 23 25 28 29 32 35 38 40 41 41 41 41 43 44 44 42 41 38 34 32 33 34 35 37 39 40 42 43 44 46 48 50 50 45 41 39 37 35 31 28 31 35 39 40 36 31 28 27 29 34 34 31 30 29 29
5 6 5 4 5 5 6 11 14 14 12 13 14 12 8 11 14 14 13 13 13 13 14 16 16 15 15 15 16 18 20 23 26 28 31 34 36 38 38 39 42 43 44 46 46 44 43 41 37 34 34 36 39 39 39 39 39 39 38 39 40 42 41 38 35 35 37 36 30 25 25 26 28 33 35 33 31 29 28 30 30 30 30 30 29
5 6 6 4 6 5 7 12 12 10 10 12 12 10 9 12 14 13 12 12 12 14 15 15 14 13 15 16 16 16 18 21 25 27 30 33 34 36 39 40 42 45 44 42 41 40 41 41 38 36 37 39 40 40 39 38 38 37 36 36 35 34 32 31 29 29 32 34 30 26 24 21 19 22 26 27 27 26 24 25 26 28 29 30 30
6 6 5 5 7 5 8 13 10 7 11 12 11 9 10 11 13 12 11 13 15 15 15 14 13 14 16 16 16 16 18 20 23 27 30 32 34 37 40 40 41 42 43 40 36 35 38 40 40 40 41 41 41 42 40 37 34 32 32 32 31 30 29 29 28 27 27 28 27 25 24 22 19 16 17 18 19 19 20 21 22 23 26 29 30
6 6 5 6 9 6 9 14 9 6 12 13 10 9 10 11 13 11 13 17 18 15 13 13 14 16 17 15 15 17 18 18 23 28 31 32 35 38 38 38 38 37 37 37 37 35 37 40 41 42 43 41 41 42 41 38 34 31 29 29 29 29 29 28 26 25 25 24 22 22 22 20 18 17 18 19 18 18 19 21 22 24 27 29 29
6 7 4 8 11 7 9 13 9 6 12 12 10 9 10 11 12 11 16 21 19 14 12 14 16 17 16 16 16 17 17 19 25 30 32 33 36 37 37 37 37 34 32 33 35 36 38 39 40 40 38 36 36 36 36 35 32 29 28 29 29 28 26 25 23 22 22 21 19 20 20 18 17 19 19 16 16 18 21 23 24 25 25 25 24
5 7 5 8 12 8 8 11 9 7 11 12 9 8 9 10 10 11 18 23 20 14 12 14 16 16 16 16 17 18 18 22 27 30 32 33 35 35 36 37 36 36 34 32 33 36 38 40 41 39 37 36 36 36 37 33 27 25 26 29 31 28 24 21 19 17 17 17 17 18 17 16 16 18 17 15 16 19 20 19 19 18 18 19 20
5 7 5 8 13 9 6 9 10 8 10 11 8 8 9 9 8 12 19 24 21 15 12 14 16 17 16 17 19 19 20 24 27 30 31 32 33 34 36 37 37 38 37 33 32 34 38 40 40 41 43 45 46 47 48 41 28 23 26 28 29 30 26 20 15 12 12 14 15 15 14 14 16 16 14 15 16 15 13 11 11 12 14 16 19
6 6 5 9 14 10 5 9 11 8 8 9 8 8 9 8 9 14 20 24 22 15 12 15 19 18 16 18 20 21 22 25 27 29 31 31 31 33 36 38 39 41 41 38 33 32 38 42 43 42 44 47 48 51 53 49 40 34 34 32 27 25 24 21 16 12 11 12 13 12 11 11 13 13 11 11 10 8 8 9 10 11 14 17 19
6 6 5 10 14 10 5 9 11 7 8 8 6 7 10 9 12 17 21 23 22 17 14 18 22 19 17 20 23 23 23 25 27 28 30 30 31 33 36 38 40 42 43 42 36 32 37 42 44 43 44 43 42 44 47 49 47 45 45 43 33 23 20 19 15 9 7 7 8 7 8 9 9 9 7 6 8 9 9 10 12 14 15 17 17
6 7 5 11 13 10 5 8 9 7 8 7 5 9 11 10 13 19 20 21 22 19 17 20 24 23 23 25 26 24 23 25 26 26 28 29 30 33 35 37 38 39 39 40 36 32 34 38 42 45 47 46 44 45 48 50 49 47 47 48 43 34 28 25 19 13 11 10 10 12 14 14 13 12 12 11 12 12 11 11 12 13 14 15 16
5 6 5 8 10 9 5 6 8 7 7 7 8 11 12 11 14 19 20 21 22 22 21 22 23 24 27 29 27 25 24 25 24 23 24 26 27 29 31 33 34 34 34 36 36 35 36 38 40 45 51 52 52 54 56 56 53 49 48 47 45 43 42 39 34 30 27 25 24 23 21 20 20 19 17 15 15 14 13 13 14 14 13 14 14
4 6 6 6 8 8 5 6 7 6 7 8 9 11 12 12 15 18 18 20 22 23 24 24 23 25 27 27 25 23 22 22 21 21 22 24 24 26 28 30 30 30 31 33 34 37 40 40 39 42 49 54 55 56 57 57 55 52 50 46 45 45 44 43 42 38 34 31 29 27 24 23 22 21 19 18 18 17 16 16 16 15 14 12 12
7 9 8 6 6 6 5 5 5 6 7 7 8 9 11 12 14 16 16 18 21 23 24 23 23 25 27 25 23 21 20 19 19 21 24 25 26 27 28 29 28 29 31 32 33 35 38 39 39 41 45 51 54 53 52 53 54 53 51 48 45 42 40 39 39 38 35 32 30 28 27 25 24 23 21 18 18 19 20 20 18 17 15 12 11
10 11 10 6 4 5 5 4 5 6 7 7 7 7 8 10 12 13 14 16 19 21 22 21 22 25 27 25 24 23 22 21 20 23 26 27 28 28 29 28 28 29 31 32 32 32 33 33 36 39 41 46 51 51 48 47 50 51 50 48 45 43 38 34 34 34 35 34 31 30 29 29 28 27 24 21 20 20 21 22 21 21 18 14 12
11 12 10 7 4 4 4 3 5 6 6 6 6 6 7 8 9 9 12 15 17 19 19 18 20 25 27 27 26 24 22 21 21 23 26 28 28 29 29 28 28 30 31 31 31 32 32 31 33 36 38 40 45 48 45 43 44 48 48 47 45 43 39 33 31 32 34 34 33 31 31 31 30 28 27 26 26 25 24 23 23 23 21 18 16
9 12 11 8 4 3 2 3 6 7 6 5 6 6 8 9 8 7 9 12 15 18 17 16 19 25 27 28 28 24 21 21 23 25 27 28 28 28 30 30 29 29 30 30 30 30 32 31 32 36 39 38 39 43 44 41 41 44 46 45 43 40 37 34 32 32 33 33 32 31 32 32 31 29 29 29 30 31 30 28 26 24 23 21 19
6 10 12 9 5 3 1 4 7 7 5 5 6 6 7 7 7 6 6 8 11 13 12 13 17 23 25 28 29 24 20 23 26 27 28 28 28 29 30 31 30 29 29 30 30 30 30 31 31 35 39 37 36 37 40 41 40 41 44 45 43 40 37 35 33 33 32 32 31 30 31 31 30 29 29 30 32 33 34 33 31 27 24 22 20
6 9 10 9 6 3 2 6 8 7 5 5 6 6 6 6 6 7 6 7 9 10 8 9 13 18 22 27 28 22 20 24 25 24 25 26 27 28 29 29 29 29 29 30 30 30 30 30 30 33 36 36 34 35 37 38 39 39 41 43 42 40 39 36 33 32 31 30 29 29 29 29 29 29 30 31 31 32 33 34 33 30 26 23 22
9 10 10 9 7 3 2 5 7 7 6 5 4 5 6 6 6 7 6 7 9 9 8 9 11 14 20 27 27 22 20 22 22 21 23 25 25 25 26 26 26 27 28 28 29 30 30 29 29 32 35 34 33 33 34 36 37 37 38 40 40 39 38 36 32 30 29 29 28 27 27 27 27 29 31 31 30 30 32 33 33 31 28 25 24
11 11 10 10 7 2 1 3 5 5 5 4 3 6 7 6 6 6 6 6 8 9 8 10 11 13 19 26 27 22 20 20 20 21 23 24 24 25 25 24 25 26 26 25 26 29 30 29 28 30 34 34 32 32 34 35 35 35 36 37 37 36 35 34 32 30 28 28 29 30 29 27 26 27 28 29 29 29 31 31 31 31 29 27 26
12 12 12 12 8 2 0 1 2 3 3 2 2 4 6 6 6 6 6 6 8 8 9 9 10 13 19 24 25 22 19 18 20 22 23 23 23 23 23 23 24 26 25 23 24 26 27 28 28 27 30 34 33 31 32 35 36 35 36 37 37 36 36 35 33 32 29 28 29 31 31 30 29 30 29 28 27 28 29 29 29 29 28 27 27
13 13 12 11 9 5 3 3 2 1 1 2 2 3 5 5 5 5 6 7 8 8 8 9 10 13 18 23 23 20 18 17 18 20 21 22 22 22 22 22 24 26 24 22 24 25 25 27 28 26 27 32 33 31 31 35 36 36 36 37 36 36 35 35 34 33 30 27 27 29 31 31 32 33 32 28 26 27 27 27 28 27 26 27 28
9 12 11 9 6 3 3 2 1 0 1 2 2 3 4 4 4 6 6 7 8 9 8 8 10 12 17 21 22 19 16 15 16 17 18 20 21 22 22 22 24 26 24 21 23 25 24 24 27 26 25 29 33 31 30 34 37 37 37 37 36 34 34 33 33 33 30 27 25 27 29 31 33 36 35 31 27 26 26 26 26 26 26 28 30
5 8 9 8 4 1 1 2 1 1 2 3 4 3 3 3 4 6 6 7 9 10 8 8 9 11 14 19 21 18 15 13 15 16 17 18 20 21 22 22 24 25 23 20 21 24 24 23 25 26 25 26 31 32 31 32 36 37 37 38 37 35 33 33 32 32 31 28 26 27 28 30 32 36 36 33 28 26 26 26 25 25 26 29 31
4 4 5 4 2 2 4 3 2 2 3 3 3 3 4 4 3 4 5 6 8 9 7 7 9 10 11 15 17 17 14 13 14 15 16 17 19 21 22 23 23 23 22 20 20 23 24 22 24 26 24 23 27 31 31 31 34 35 35 37 37 35 33 32 31 32 31 29 28 28 28 29 32 34 35 33 28 25 25 26 25 25 27 30 32
7 5 4 3 2 1 3 4 4 5 5 3 3 5 6 4 1 4 6 6 7 8 6 6 8 9 10 12 14 15 14 13 13 15 16 17 19 22 23 23 22 22 22 20 20 22 23 21 21 24 23 21 24 29 31 31 32 33 34 34 35 35 34 32 31 30 30 30 30 28 27 29 31 32 33 32 28 26 26 27 27 27 28 30 32
6 5 4 3 1 2 3 4 5 5 4 2 2 4 4 2 2 6 7 6 7 7 5 5 8 9 9 12 14 15 14 13 13 14 16 18 20 22 23 22 22 21 21 20 20 21 21 20 20 22 23 21 22 27 30 30 30 30 31 32 33 34 34 32 29 28 27 27 28 28 27 28 30 31 32 30 28 28 28 28 28 28 29 30 32
4 4 4 4 4 5 6 5 5 3 2 1 2 3 2 2 4 6 7 7 7 7 6 5 7 8 9 12 13 14 14 13 12 13 15 17 19 21 22 22 22 21 21 20 21 21 21 20 19 20 21 21 21 25 29 30 28 28 29 30 30 31 31 30 29 27 25 24 25 26 27 29 29 30 31 29 26 27 28 28 28 29 30 30 31
5 5 5 6 7 7 8 8 7 6 6 6 5 5 5 4 5 5 6 7 7 7 5 4 6 7 9 11 12 13 13 13 12 13 15 17 19 20 21 21 22 22 21 21 22 22 21 20 19 19 20 20 21 24 28 29 28 27 28 28 28 29 29 29 28 26 24 22 22 23 26 28 28 29 30 27 25 27 29 27 27 29 31 31 31
6 6 5 6 7 8 8 8 7 6 7 7 6 5 5 5 4 4 4 5 4 4 4 5 6 7 9 10 12 13 13 13 13 14 15 17 18 19 20 21 21 21 22 22 22 22 21 20 19 20 20 19 21 24 28 29 28 27 27 27 27 27 27 27 27 26 24 22 19 19 23 26 26 27 27 26 26 29 30 27 25 28 31 32 32
6 6 6 6 7 7 7 8 6 5 6 7 6 5 5 4 3 4 5 4 3 3 5 6 6 7 8 10 11 12 13 13 13 14 15 16 17 18 19 20 21 21 22 22 22 22 21 20 20 20 19 19 20 24 28 29 28 27 27 27 27 26 25 24 24 24 24 22 19 17 20 24 24 23 24 26 28 30 30 27 26 29 31 33 34
7 7 7 7 7 8 10 10 8 7 9 9 7 6 6 5 4 6 7 5 3 4 7 7 6 7 9 10 11 12 12 12 13 14 15 16 17 17 18 19 20 21 22 22 22 22 22 22 21 21 21 21 21 24 27 28 27 27 27 26 26 25 24 23 23 23 23 23 21 19 20 21 21 21 21 24 27 30 30 28 28 29 31 33 35
8 8 8 8 8 9 11 12 10 10 11 10 7 7 8 6 5 7 8 7 4 6 8 8 6 7 9 10 10 12 12 12 13 13 14 15 16 17 18 19 20 20 21 21 21 22 22 22 23 23 23 23 24 26 27 27 27 26 26 25 24 24 24 23 23 23 23 22 22 21 20 19 19 20 20 20 24 28 31 30 29 29 29 31 34
Wind_Direction
287 298 307 300 302 312 313 321 328 333 333 336 343 342 337 340 339 337 337 336 334 337 337 334 333 334 332 329 328 327 328 328 326 325 323 321 320 319 318 317 313 312 310 310 311 312 312 308 303 301 300 298 298 298 298 298 295 291 288 289 290 291 292 294 295 297 297 298 298 299 300 302 304 305 306 303 302 304 306 305 306 307 307 306 306
296 295 298 299 301 305 302 313 328 331 327 331 337 337 336 337 336 332 333 337 335 332 332 332 332 331 330 329 328 326 325 324 323 322 319 317 317 317 318 316 315 316 315 312 311 310 307 305 303 301 298 296 295 294 295 295 292 288 285 284 283 283 283 285 290 292 294 296 297 298 299 300 301 302 303 304 304 304 304 304 305 306 304 302 302
286 282 287 298 301 305 305 306 319 327 327 328 329 332 333 333 334 334 332 333 333 330 330 331 330 328 326 326 327 326 324 324 323 322 321 319 319 320 319 316 314 313 314 312 310 308 305 303 301 300 297 295 293 292 292 292 290 287 285 282 280 279 279 280 282 284 288 292 294 296 298 298 298 300 302 302 302 302 303 304 304 303 302 300 298
287 287 291 302 301 301 304 302 310 321 324 321 319 324 331 333 335 335 332 330 329 327 327 328 326 324 323 323 325 325 324 323 322 321 321 321 319 316 313 311 311 313 315 315 313 309 306 302 301 300 298 295 292 290 289 288 286 284 283 282 281 280 280 280 279 278 280 284 287 290 293 295 296 298 300 300 300 301 302 302 302 301 300 298 295
286 288 288 296 302 300 306 311 314 322 328 326 323 328 335 336 335 333 330 327 325 325 326 328 328 326 324 324 323 322 322 321 322 322 319 316 313 310 309 310 313 315 318 318 314 309 305 303 303 302 299 296 293 290 287 285 283 282 281 281 280 279 279 279 278 277 275 278 283 286 288 290 291 294 297 297 298 300 301 300 301 302 298 293 291
280 280 284 292 300 301 308 315 315 322 330 325 322 329 333 331 330 329 325 321 323 328 330 330 330 326 324 325 324 324 325 325 323 320 315 313 312 312 313 314 315 317 318 318 316 312 308 305 304 302 300 298 294 291 288 285 284 282 281 280 279 279 279 278 277 276 275 275 277 280 283 286 287 289 291 291 293 297 299 299 301 298 292 290 293
266 268 283 289 301 306 305 306 307 312 317 319 320 323 325 326 327 327 326 327 329 330 327 325 326 326 327 328 327 325 326 324 321 317 315 315 315 314 313 314 315 317 318 318 317 315 312 309 306 303 300 298 296 294 292 289 286 284 282 281 281 280 280 279 277 277 275 272 271 274 279 281 283 286 287 287 289 290 293 296 297 292 290 297 302
260 275 287 287 299 306 306 311 311 303 307 325 331 324 323 330 331 331 333 332 327 324 323 325 329 331 330 328 325 325 326 323 320 317 316 315 314 314 315 315 316 319 322 324 322 319 316 313 310 308 304 301 298 295 293 290 288 286 285 285 285 283 281 279 278 276 273 269 269 273 274 275 279 284 285 285 285 285 285 286 290 293 297 302 303
276 303 289 288 313 321 316 315 316 312 318 335 342 340 337 335 333 334 332 325 322 323 325 330 332 331 328 326 327 330 328 321 317 317 317 316 316 315 314 315 319 324 329 332 330 326 322 318 314 312 309 305 301 297 295 292 289 288 287 287 286 284 282 280 278 275 271 268 268 270 270 270 273 279 281 281 281 284 283 282 287 293 295 291 292
319 340 301 310 331 330 322 316 327 342 345 345 340 336 334 332 333 333 325 320 324 326 326 330 330 328 328 330 332 333 326 319 317 317 317 316 315 314 314 318 323 328 331 332 331 327 323 320 317 314 312 310 306 302 299 296 293 292 291 290 288 287 285 283 280 276 271 267 266 265 265 266 267 271 274 276 278 281 284 284 287 287 285 285 291
25 6 353 346 326 323 329 339 351 350 346 345 337 330 332 333 331 323 317 322 328 325 325 329 330 331 332 331 333 331 322 317 317 317 316 316 316 317 319 323 327 330 331 331 329 324 318 316 315 311 310 308 304 302 301 299 297 297 295 293 289 288 287 285 282 278 273 267 264 262 260 262 265 267 269 270 272 275 278 278 277 277 281 289 295
14 350 357 347 326 340 4 7 355 345 340 339 335 334 336 333 319 313 319 327 327 324 328 332 334 336 334 333 335 328 318 317 318 318 319 319 320 321 324 327 328 330 332 330 325 319 316 318 320 317 312 305 300 301 303 303 302 300 298 296 292 288 285 282 279 279 277 271 265 262 260 260 262 263 264 265 268 272 273 271 270 274 280 285 288
1 5 352 336 342 2 7 358 350 347 343 335 331 335 332 315 309 319 327 329 326 328 332 335 337 337 335 336 335 325 319 321 322 321 322 322 322 324 325 327 329 333 335 330 322 318 318 320 323 325 323 318 311 309 309 309 308 305 302 301 297 292 288 284 280 278 277 273 268 264 261 260 259 258 258 261 265 268 267 267 270 277 281 281 281
7 8 341 343 359 359 354 354 352 344 336 332 334 332 315 308 319 330 332 328 329 334 337 339 340 337 335 338 334 326 325 326 324 325 325 323 322 323 325 329 334 336 334 329 324 321 321 321 321 322 323 325 322 318 315 312 310 308 307 305 302 298 294 291 289 283 278 274 270 266 262 259 258 258 256 256 258 261 263 267 272 276 279 280 280
6 13 11 3 356 350 351 353 336 320 325 335 335 317 310 322 336 337 328 329 336 341 341 340 340 338 340 343 339 332 331 330 328 328 324 320 322 326 331 336 338 335 332 330 327 324 322 321 320 318 318 320 319 315 312 310 307 306 305 303 300 298 293 290 290 290 285 278 273 269 265 260 258 259 259 257 258 259 261 264 268 272 278 281 282
12 7 8 6 1 354 352 331 301 310 336 341 322 315 327 341 345 329 328 340 349 346 340 340 342 343 344 346 343 337 334 334 333 328 324 323 328 334 338 339 338 335 332 330 326 323 322 320 319 318 317 315 313 308 306 305 305 306 307 304 301 297 292 286 284 288 294 292 284 278 273 266 260 259 260 260 261 261 260 260 264 272 278 281 281
20 4 3 21 21 359 336 310 307 329 345 334 320 333 347 351 336 331 343 356 352 343 343 346 346 346 347 348 347 342 338 337 335 330 327 330 335 340 341 339 337 335 333 331 330 330 332 329 323 318 316 313 310 305 302 302 303 304 305 305 303 297 292 287 284 285 291 292 288 283 278 270 260 255 255 257 260 262 261 261 266 271 274 274 275
13 21 52 56 34 10 327 312 323 338 344 332 335 351 1 343 338 349 359 359 349 345 347 346 346 349 350 348 347 344 341 338 336 333 332 336 341 343 342 340 341 342 342 343 343 341 342 339 330 322 319 317 314 311 310 310 309 307 306 306 302 297 294 293 292 289 287 285 286 286 280 270 258 252 251 251 255 261 263 263 266 268 268 268 270
24 43 71 74 38 21 333 320 332 345 348 342 350 5 360 342 353 2 2 358 352 344 341 344 353 356 347 341 345 347 345 341 336 334 338 344 347 347 348 351 352 353 352 351 349 347 345 342 336 329 325 322 321 322 323 323 321 319 317 314 307 302 302 303 299 293 286 283 285 286 282 277 263 252 250 249 248 251 258 262 264 266 265 266 267
69 60 71 65 35 21 336 336 348 354 352 355 5 9 353 350 1 3 359 356 348 342 345 355 3 353 341 346 353 352 350 343 334 337 347 353 354 354 358 1 359 356 355 352 348 344 341 338 334 330 328 328 328 330 330 330 328 324 320 317 311 310 314 312 304 297 289 283 282 280 279 284 280 261 258 259 253 251 258 263 265 265 265 266 268
90 74 71 39 27 16 341 352 3 351 351 6 16 7 352 357 4 360 350 348 349 356 4 4 359 349 349 359 359 351 352 344 336 344 353 355 357 0 3 5 2 358 356 355 351 345 340 337 334 331 331 332 332 331 330 330 331 326 319 316 314 314 317 313 304 302 296 285 279 275 273 281 291 282 272 273 270 267 267 266 265 267 267 269 269
83 75 64 16 22 15 342 358 14 349 352 11 22 6 350 355 2 354 344 350 1 12 10 357 355 357 0 4 357 352 355 347 341 350 355 356 1 4 5 6 4 360 357 357 355 351 347 343 338 334 333 331 328 326 325 325 327 325 322 322 320 316 314 311 303 296 292 284 277 274 273 275 280 278 273 274 274 272 270 270 272 273 272 273 273
68 67 53 8 21 16 340 0 23 354 353 15 23 3 349 355 0 347 342 356 11 20 6 355 359 3 2 2 358 355 355 350 348 354 358 0 5 7 8 10 8 3 359 356 356 355 352 351 350 346 341 338 334 331 331 328 324 323 324 325 322 317 315 312 302 288 282 280 275 274 276 272 268 268 269 269 267 269 276 282 280 275 271 273 276
58 58 43 4 16 17 343 4 26 2 360 18 20 359 356 2 357 339 343 359 15 22 7 359 3 5 3 0 358 356 356 354 355 358 2 6 8 9 12 13 10 7 3 359 0 2 358 358 4 6 5 3 1 359 357 349 333 324 328 330 328 327 328 322 307 291 286 286 281 281 282 275 265 264 261 261 270 279 286 288 282 271 268 273 279
50 54 44 2 12 22 353 4 24 12 5 19 16 2 8 8 350 341 348 0 14 22 11 2 5 8 5 359 357 358 359 358 359 2 5 7 8 10 13 14 10 8 5 1 2 2 358 1 11 17 19 19 18 16 13 8 359 348 344 340 334 336 341 339 321 299 295 295 289 287 285 275 269 273 277 282 287 289 290 291 289 285 284 285 287
46 46 37 359 11 26 352 354 19 18 4 15 18 12 19 11 347 347 352 359 11 22 15 7 10 11 5 358 357 359 1 360 1 3 5 6 6 8 12 14 12 11 9 7 6 1 359 6 14 18 19 21 21 20 18 18 21 20 11 1 348 341 345 347 335 315 305 302 294 290 294 291 290 296 302 304 302 298 301 310 317 316 308 300 295
48 40 16 345 2 29 7 353 17 21 3 13 19 9 14 2 345 350 355 359 10 20 16 13 16 16 6 357 356 359 360 359 0 2 4 4 4 6 9 11 12 12 11 11 9 2 358 4 12 16 19 20 20 21 21 21 24 25 23 20 16 6 358 355 346 331 319 316 309 316 333 334 326 327 338 346 347 348 344 340 334 326 320 317 310
43 40 14 335 353 29 27 356 15 22 6 6 351 345 358 356 347 352 355 358 7 15 15 15 17 14 5 357 354 355 356 357 358 1 3 3 3 4 5 7 10 11 10 10 9 3 358 2 8 15 21 22 21 22 23 21 21 22 25 29 31 28 23 24 31 43 46 37 35 33 26 23 25 27 27 24 16 7 357 347 339 333 331 329 321
32 26 9 337 356 30 30 359 15 23 9 1 344 341 355 359 352 352 353 357 4 10 12 12 12 9 4 357 352 351 350 351 353 357 359 0 1 3 5 6 6 5 6 8 9 7 6 6 7 14 21 24 23 23 22 18 17 19 24 30 33 32 31 34 40 45 48 48 47 47 44 42 42 38 31 26 24 15 1 353 348 342 336 331 328
16 360 359 352 9 31 27 5 16 24 18 11 357 349 355 358 353 350 352 356 360 4 8 8 5 4 2 355 350 349 347 343 345 350 354 358 1 4 7 7 4 3 5 6 6 7 10 10 7 11 18 21 21 21 19 15 14 17 21 25 30 32 34 38 38 37 42 47 45 44 45 44 41 36 28 25 24 14 3 360 355 348 344 339 338
1 360 13 23 19 18 19 11 10 20 28 27 16 3 358 356 353 351 353 356 357 359 3 2 358 358 359 354 350 351 350 348 351 360 4 5 6 8 9 7 6 9 11 7 3 3 7 8 7 9 14 17 17 18 17 13 12 16 19 23 27 30 34 40 39 34 35 42 44 42 42 40 38 33 25 23 23 14 7 8 6 359 358 358 355
360 7 28 47 25 7 22 17 0 15 32 34 31 22 9 4 359 351 348 353 355 354 357 357 353 351 353 355 355 354 354 356 2 8 10 10 9 10 11 9 10 14 15 10 5 4 3 2 3 5 7 10 12 14 15 12 10 14 18 22 26 29 31 37 42 39 37 39 41 43 42 41 39 36 29 25 25 18 13 13 11 5 2 0 360
358 4 22 46 43 20 31 2 346 14 39 37 27 20 12 17 18 359 345 348 353 353 353 354 349 345 348 355 359 355 354 359 6 10 10 8 9 13 16 16 17 18 15 10 7 7 3 0 2 2 2 5 7 10 11 10 9 12 17 21 25 29 31 35 42 45 43 42 41 43 43 41 39 38 35 33 31 26 22 18 14 9 6 1 356
350 354 10 34 57 53 38 336 344 13 42 46 31 17 11 19 28 16 356 350 351 352 352 353 348 341 343 353 359 356 356 3 9 10 6 2 4 12 17 20 22 22 17 11 7 6 3 1 2 1 359 3 7 7 8 9 8 10 15 19 24 28 30 34 39 42 43 43 41 42 42 39 37 37 37 35 33 29 26 22 17 12 10 6 1
345 349 0 17 47 70 4 329 350 13 37 47 33 22 18 19 20 21 11 354 353 357 357 352 343 335 336 350 358 359 4 10 11 7 0 356 359 6 11 14 17 17 15 11 8 6 3 2 3 1 360 4 9 7 4 6 8 9 12 16 21 23 26 30 35 37 38 39 38 37 39 38 36 34 33 32 31 27 22 20 17 14 12 9 4
345 350 359 7 22 41 324 329 350 13 42 53 35 19 21 21 18 25 16 349 353 7 2 347 338 329 333 349 360 6 14 16 11 4 358 357 1 4 5 7 8 9 9 8 6 6 5 2 3 3 0 3 10 9 3 3 6 8 10 15 19 20 20 23 27 30 32 33 32 31 33 34 34 31 27 26 28 26 21 17 16 15 13 11 7
345 354 3 3 6 18 323 328 348 16 48 59 26 4 24 31 21 25 20 351 354 6 358 345 340 330 336 352 4 14 21 17 8 1 0 2 4 5 4 4 3 3 5 5 3 3 4 4 5 4 1 2 7 7 2 2 5 6 9 14 18 19 19 20 21 23 24 25 26 25 25 26 28 28 24 21 23 25 21 16 13 13 13 12 9
342 350 357 359 3 35 257 316 348 29 58 64 357 352 20 37 26 20 18 360 358 4 357 351 345 333 338 353 4 15 22 15 3 359 1 3 4 4 3 2 0 0 3 3 360 359 2 4 5 5 3 4 8 7 2 3 6 7 8 13 16 18 19 20 20 20 20 20 22 23 23 22 23 25 23 18 17 19 17 13 11 11 10 10 10
332 338 347 352 356 3 256 345 43 55 47 56 23 356 9 29 28 19 15 8 3 1 358 356 347 335 338 350 1 13 22 13 360 358 0 1 1 3 2 360 358 358 1 3 359 357 359 2 4 5 3 5 10 9 2 3 7 8 8 11 14 16 18 19 19 19 19 21 24 25 24 24 24 23 19 15 14 15 12 10 10 10 8 8 9
323 326 335 340 341 346 6 42 92 121 345 37 62 2 357 20 27 14 11 12 6 359 359 357 348 336 338 346 358 13 21 9 356 355 358 358 359 1 1 359 356 355 359 2 358 356 358 359 2 5 4 5 9 9 4 4 8 9 9 11 13 14 15 17 17 16 16 18 24 26 25 24 24 20 14 10 12 14 11 10 11 9 8 10 9
307 310 318 329 342 4 17 10 15 314 334 14 33 2 357 17 19 9 10 7 359 358 1 357 346 338 337 343 354 10 18 4 352 354 356 355 357 360 359 356 355 356 1 1 356 357 359 357 358 4 5 2 5 8 6 4 8 10 9 10 12 12 13 16 16 15 13 15 21 26 24 22 20 16 10 7 10 13 13 13 13 10 9 12 12
278 289 308 328 355 64 202 275 338 21 337 340 353 357 7 26 17 9 7 355 349 356 3 354 344 342 338 339 348 1 9 359 352 355 356 353 355 358 357 355 356 359 3 0 354 357 2 359 356 3 6 360 0 6 6 4 6 9 9 9 10 10 11 13 14 13 13 16 21 23 23 22 19 12 5 5 9 11 12 14 15 13 13 15 14
293 276 288 298 285 206 210 223 206 213 258 288 309 340 22 54 32 353 355 349 344 353 1 350 342 343 341 338 342 351 360 358 353 353 353 351 353 355 355 356 358 360 3 4 358 358 3 2 357 2 6 359 356 2 6 4 4 7 7 6 7 9 9 10 12 11 11 15 20 20 19 21 19 10 2 5 12 14 12 15 17 17 17 17 14
318 320 320 318 309 221 203 206 220 248 280 313 333 346 16 53 18 321 342 347 339 347 1 353 339 339 341 340 340 346 354 357 352 349 350 351 352 353 355 358 360 0 2 5 3 1 4 4 358 1 6 0 353 358 5 4 2 4 6 5 5 7 8 8 9 10 10 13 17 18 17 20 19 8 359 3 14 19 17 18 19 18 17 17 14
323 327 326 324 313 248 236 238 247 267 305 9 17 344 0 32 272 305 328 338 342 358 11 353 338 339 340 339 340 345 352 355 351 348 349 348 351 355 359 1 3 3 2 4 6 5 6 5 360 359 4 1 352 354 3 4 1 2 5 4 3 5 6 5 6 9 10 13 16 16 16 20 19 7 355 358 12 20 20 20 20 18 16 17 15
310 296 270 250 234 224 230 243 249 247 246 209 202 219 231 238 264 296 316 331 350 12 17 351 336 336 334 336 339 344 350 352 350 346 346 348 353 359 2 3 5 5 4 5 7 6 5 5 2 358 0 360 353 353 360 3 0 0 4 4 2 3 4 3 4 5 7 11 14 14 15 19 17 5 352 354 7 16 16 17 19 19 17 17 16
284 279 267 248 237 230 228 231 228 216 218 233 234 221 222 242 266 288 309 328 348 4 4 340 328 328 329 334 340 344 347 350 350 347 348 352 358 1 3 4 5 6 6 7 9 7 5 5 2 358 357 358 353 352 358 1 360 360 2 3 2 2 2 2 2 3 3 4 8 11 15 18 13 360 353 358 9 12 9 12 17 19 18 18 18
279 282 273 250 245 248 246 247 246 232 227 245 258 249 237 242 254 272 294 312 327 336 329 319 319 324 327 331 336 342 346 349 350 351 352 356 359 1 2 4 5 5 6 8 9 8 7 6 3 360 0 358 351 350 356 1 0 360 2 3 2 2 2 1 1 1 360 358 359 8 18 18 8 357 359 11 17 10 5 9 18 20 18 18 20
277 279 274 258 247 236 231 242 252 230 214 232 257 268 264 257 244 251 273 289 289 290 304 312 317 321 326 330 334 339 343 346 350 352 355 357 358 360 2 3 4 4 6 8 9 9 9 8 4 1 1 357 350 351 357 1 0 0 2 2 0 360 1 1 1 2 1 357 356 7 18 16 5 358 6 19 21 12 6 11 20 20 17 18 20
268 268 270 266 246 218 216 228 232 216 215 225 231 237 252 256 237 246 272 290 276 270 289 303 310 314 322 328 331 333 337 343 348 351 353 355 356 358 1 3 3 4 6 8 9 9 9 9 7 2 359 357 357 358 0 1 1 1 2 1 358 358 0 1 2 4 4 360 359 7 16 14 7 5 12 22 24 17 11 14 20 19 15 16 18
256 261 265 265 250 228 224 228 225 221 228 233 218 214 234 239 218 234 266 280 266 268 288 300 304 307 316 324 327 329 334 341 345 348 351 352 353 357 1 1 1 3 6 8 10 11 11 11 10 6 1 359 0 2 2 3 4 3 1 359 357 359 1 1 3 6 6 1 2 10 15 12 10 13 18 23 26 21 14 13 17 17 14 14 15
Height
1556 1556 1556 1556 1556 1556 1555 1555 1554 1554 1554 1553 1553 1553 1553 1552 1551 1550 1549 1548 1547 1546 1545 1544 1543 1541 1540 1539 1537 1536 1535 1533 1532 1531 1529 1528 1526 1524 1522 1520 1519 1517 1516 1514 1512 1511 1509 1508 1506 1505 1504 1502 1501 1499 1498 1496 1495 1494 1492 1490 1489 1488 1486 1484 1480 1475 1475 1475 1474 1473 1472 1470 1469 1468 1466 1464 1463 1463 1462 1461 1459 1458 1456 1454 1452
1555 1555 1555 1555 1555 1555 1555 1554 1554 1554 1554 1553 1552 1553 1552 1552 1551 1550 1548 1548 1547 1545 1544 1543 1542 1541 1539 1538 1537 1535 1534 1532 1531 1530 1528 1526 1524 1522 1520 1518 1517 1515 1513 1512 1510 1509 1507 1505 1503 1502 1501 1499 1497 1495 1494 1493 1491 1489 1488 1487 1485 1484 1483 1481 1478 1474 1471 1471 1471 1470 1469 1468 1466 1465 1464 1462 1460 1460 1459 1458 1457 1456 1454 1452 1450
1555 1555 1555 1555 1554 1554 1554 1554 1554 1554 1553 1553 1552 1552 1551 1551 1550 1549 1548 1547 1546 1545 1544 1542 1541 1540 1538 1537 1535 1534 1533 1531 1530 1528 1526 1524 1522 1520 1518 1516 1514 1513 1511 1509 1508 1506 1504 1502 1500 1499 1497 1495 1493 1491 1490 1488 1487 1485 1484 1483 1481 1479 1479 1478 1475 1472 1468 1467 1467 1466 1466 1465 1463 1462 1461 1460 1458 1457 1456 1455 1455 1454 1452 1450 1448
1554 1554 1554 1554 1554 1553 1553 1553 1553 1553 1553 1552 1552 1551 1550 1550 1549 1548 1547 1547 1545 1544 1543 1541 1540 1538 1537 1536 1534 1533 1531 1529 1528 1526 1524 1522 1520 1517 1515 1513 1511 1510 1509 1507 1505 1503 1501 1499 1497 1496 1494 1492 1489 1488 1486 1484 1483 1482 1480 1479 1477 1475 1475 1474 1472 1470 1466 1463 1463 1463 1463 1462 1461 1460 1459 1457 1456 1455 1454 1453 1452 1451 1450 1447 1445
1554 1553 1553 1553 1553 1553 1553 1552 1552 1552 1552 1552 1551 1550 1550 1549 1549 1548 1547 1546 1544 1543 1542 1540 1539 1537 1536 1534 1532 1531 1529 1527 1525 1523 1521 1520 1517 1514 1512 1511 1510 1508 1506 1504 1502 1500 1497 1495 1493 1491 1489 1487 1485 1484 1482 1480 1479 1478 1476 1475 1473 1472 1470 1469 1468 1466 1464 1460 1458 1459 1459 1458 1457 1457 1456 1455 1453 1452 1451 1450 1449 1449 1447 1444 1442
1553 1553 1552 1552 1552 1553 1552 1552 1552 1551 1551 1551 1550 1550 1549 1549 1548 1547 1546 1545 1543 1542 1541 1539 1538 1536 1534 1533 1531 1529 1527 1525 1523 1520 1519 1517 1515 1512 1511 1509 1507 1505 1503 1500 1498 1496 1493 1491 1489 1487 1485 1483 1481 1479 1478 1476 1475 1473 1472 1470 1469 1468 1466 1465 1464 1462 1460 1457 1455 1454 1455 1455 1454 1453 1453 1452 1451 1449 1448 1447 1447 1446 1444 1441 1439
1551 1551 1551 1551 1551 1552 1551 1551 1551 1550 1550 1550 1550 1549 1548 1548 1547 1546 1545 1544 1542 1541 1539 1538 1536 1534 1532 1531 1529 1527 1525 1523 1520 1518 1517 1515 1513 1511 1509 1507 1505 1502 1500 1497 1494 1492 1489 1487 1485 1483 1482 1480 1478 1476 1474 1473 1471 1469 1467 1466 1464 1463 1461 1460 1459 1457 1455 1453 1451 1450 1450 1451 1450 1449 1449 1449 1448 1446 1445 1444 1443 1442 1440 1439 1438
1549 1550 1550 1550 1550 1550 1550 1550 1550 1549 1549 1549 1548 1548 1547 1547 1546 1545 1544 1542 1541 1539 1538 1536 1534 1533 1531 1529 1527 1526 1523 1520 1518 1517 1515 1513 1511 1509 1506 1504 1502 1500 1497 1494 1491 1488 1486 1484 1482 1480 1479 1477 1475 1473 1471 1469 1467 1464 1463 1462 1460 1458 1456 1455 1453 1452 1451 1449 1447 1446 1446 1446 1446 1446 1446 1446 1445 1443 1443 1441 1439 1438 1438 1437 1436
1548 1549 1550 1550 1550 1550 1550 1549 1549 1549 1548 1548 1548 1547 1547 1546 1545 1544 1542 1541 1540 1538 1536 1535 1533 1531 1530 1528 1526 1525 1522 1519 1517 1516 1514 1511 1509 1506 1504 1502 1500 1497 1493 1490 1487 1485 1483 1481 1479 1478 1476 1473 1471 1469 1467 1466 1464 1461 1459 1457 1456 1453 1451 1450 1448 1447 1446 1444 1442 1442 1442 1442 1442 1442 1442 1442 1441 1440 1439 1438 1437 1436 1435 1434 1433
1547 1548 1549 1549 1549 1549 1549 1549 1549 1549 1548 1548 1547 1546 1546 1545 1543 1542 1541 1539 1539 1537 1535 1533 1531 1530 1528 1526 1525 1524 1521 1518 1517 1515 1512 1510 1507 1504 1502 1500 1498 1495 1491 1488 1485 1484 1482 1480 1477 1475 1472 1470 1468 1465 1463 1461 1459 1456 1454 1452 1451 1448 1446 1444 1443 1442 1441 1439 1438 1438 1437 1437 1438 1439 1438 1438 1438 1437 1436 1435 1434 1433 1432 1430 1429
1547 1548 1548 1549 1549 1549 1549 1548 1548 1548 1547 1547 1546 1545 1544 1544 1542 1541 1539 1538 1537 1535 1533 1532 1530 1529 1527 1526 1525 1523 1519 1517 1515 1513 1511 1509 1506 1503 1501 1499 1496 1493 1490 1487 1484 1481 1479 1477 1474 1471 1469 1466 1463 1459 1456 1454 1452 1450 1448 1446 1445 1443 1441 1439 1438 1436 1435 1434 1433 1433 1433 1432 1433 1434 1434 1434 1435 1434 1433 1432 1431 1429 1428 1427 1427
1548 1548 1548 1548 1549 1548 1548 1548 1547 1546 1546 1546 1545 1544 1544 1543 1541 1540 1538 1537 1535 1533 1532 1530 1529 1528 1526 1525 1525 1521 1517 1516 1514 1511 1509 1507 1505 1502 1500 1497 1494 1491 1488 1485 1483 1480 1476 1472 1469 1467 1464 1461 1458 1454 1451 1448 1446 1444 1442 1440 1439 1437 1436 1434 1433 1431 1430 1429 1428 1428 1428 1428 1429 1430 1430 1430 1430 1430 1429 1428 1427 1426 1426 1425 1424
1547 1548 1548 1548 1548 1547 1547 1547 1546 1546 1546 1546 1545 1544 1543 1541 1540 1538 1537 1535 1534 1532 1531 1529 1528 1527 1526 1525 1523 1519 1516 1515 1512 1510 1508 1506 1503 1501 1498 1495 1492 1489 1486 1484 1481 1478 1473 1469 1465 1462 1460 1457 1454 1450 1446 1443 1441 1438 1436 1434 1433 1431 1430 1428 1427 1426 1426 1424 1423 1422 1423 1424 1424 1425 1426 1426 1426 1426 1425 1424 1424 1423 1422 1421 1421
1547 1547 1547 1547 1547 1546 1547 1546 1546 1546 1545 1545 1544 1543 1541 1540 1539 1537 1535 1534 1532 1531 1530 1529 1528 1527 1525 1524 1521 1517 1515 1514 1511 1509 1507 1504 1502 1499 1496 1493 1490 1487 1484 1482 1478 1475 1471 1467 1462 1458 1456 1453 1450 1447 1443 1439 1436 1433 1430 1428 1426 1425 1424 1423 1422 1421 1420 1420 1418 1417 1418 1419 1419 1419 1421 1422 1422 1422 1421 1421 1420 1419 1419 1418 1417
1547 1546 1546 1546 1546 1546 1546 1546 1546 1545 1544 1544 1543 1542 1540 1539 1537 1536 1534 1533 1532 1530 1530 1528 1527 1526 1524 1523 1520 1516 1514 1512 1509 1507 1505 1502 1500 1497 1494 1491 1487 1484 1481 1478 1475 1471 1468 1464 1460 1456 1452 1450 1448 1445 1441 1436 1432 1428 1425 1422 1420 1418 1417 1417 1416 1415 1414 1414 1413 1412 1413 1414 1414 1414 1416 1417 1417 1418 1418 1417 1417 1416 1415 1414 1413
1546 1546 1546 1546 1546 1546 1546 1545 1544 1544 1544 1543 1542 1540 1539 1537 1536 1535 1533 1532 1531 1530 1529 1527 1526 1525 1523 1522 1519 1515 1513 1511 1508 1505 1503 1500 1498 1495 1492 1488 1485 1481 1478 1474 1471 1467 1464 1460 1456 1452 1449 1447 1445 1442 1438 1433 1428 1423 1420 1416 1414 1412 1410 1410 1410 1410 1409 1407 1407 1407 1407 1408 1409 1410 1411 1413 1413 1414 1414 1414 1413 1413 1412 1410 1409
1546 1546 1546 1546 1545 1545 1544 1544 1543 1543 1543 1542 1540 1539 1538 1536 1535 1534 1532 1532 1531 1529 1528 1527 1525 1524 1522 1521 1519 1515 1512 1509 1507 1504 1501 1499 1496 1492 1489 1485 1481 1478 1474 1470 1467 1462 1458 1455 1452 1449 1446 1443 1441 1438 1434 1430 1425 1420 1416 1412 1408 1405 1403 1403 1404 1404 1403 1402 1401 1402 1401 1401 1403 1404 1406 1408 1409 1410 1411 1409 1409 1410 1409 1407 1405
1546 1545 1545 1545 1544 1544 1543 1543 1543 1543 1542 1540 1539 1538 1537 1536 1534 1533 1532 1531 1530 1529 1527 1526 1524 1523 1521 1520 1518 1515 1511 1508 1506 1504 1501 1498 1494 1490 1486 1482 1478 1474 1470 1465 1462 1457 1454 1451 1449 1446 1443 1439 1436 1433 1430 1427 1422 1417 1413 1409 1404 1399 1397 1397 1398 1397 1397 1396 1396 1397 1396 1396 1396 1398 1401 1403 1405 1407 1406 1405 1406 1407 1405 1404 1403
1546 1545 1545 1544 1544 1543 1543 1542 1542 1541 1540 1539 1538 1537 1536 1535 1534 1532 1532 1531 1529 1528 1526 1524 1523 1522 1520 1518 1517 1515 1512 1508 1505 1503 1501 1498 1494 1489 1484 1479 1474 1470 1466 1461 1457 1454 1451 1447 1445 1443 1440 1436 1432 1429 1425 1423 1419 1414 1410 1406 1401 1397 1394 1394 1393 1392 1391 1391 1392 1393 1392 1392 1392 1394 1395 1397 1399 1402 1402 1402 1403 1403 1401 1400 1400
1545 1545 1544 1544 1544 1543 1542 1542 1541 1540 1539 1538 1537 1537 1535 1534 1533 1532 1531 1530 1528 1526 1525 1523 1522 1521 1519 1518 1516 1515 1512 1509 1505 1503 1501 1498 1493 1488 1483 1478 1473 1468 1464 1460 1456 1452 1448 1445 1442 1439 1436 1432 1429 1425 1421 1418 1415 1411 1407 1403 1399 1395 1392 1391 1389 1388 1387 1387 1388 1389 1389 1389 1390 1391 1391 1393 1394 1397 1398 1399 1399 1399 1398 1398 1398
1545 1545 1544 1543 1544 1543 1541 1541 1540 1539 1538 1538 1537 1536 1535 1533 1533 1531 1530 1528 1527 1525 1524 1523 1522 1520 1518 1517 1515 1514 1512 1508 1505 1503 1501 1497 1493 1488 1483 1478 1474 1469 1465 1461 1457 1453 1449 1444 1440 1437 1433 1429 1424 1420 1416 1413 1410 1406 1403 1400 1396 1392 1390 1387 1385 1384 1383 1383 1384 1386 1386 1386 1387 1387 1388 1389 1391 1393 1393 1394 1394 1394 1395 1395 1395
1544 1544 1544 1543 1543 1542 1541 1540 1540 1538 1538 1537 1537 1536 1534 1533 1532 1530 1529 1528 1526 1525 1524 1522 1521 1519 1517 1516 1515 1513 1511 1508 1505 1502 1499 1496 1492 1488 1483 1479 1475 1471 1466 1461 1457 1454 1450 1445 1440 1435 1430 1425 1420 1416 1412 1408 1405 1402 1399 1396 1392 1389 1386 1384 1382 1381 1380 1379 1380 1382 1382 1383 1384 1386 1387 1388 1389 1389 1390 1390 1391 1391 1391 1391 1391
1544 1544 1543 1542 1542 1542 1540 1540 1539 1538 1537 1537 1537 1535 1533 1533 1531 1529 1528 1527 1525 1524 1523 1521 1520 1518 1517 1515 1514 1512 1510 1507 1504 1501 1498 1494 1491 1487 1484 1480 1476 1471 1467 1463 1459 1455 1451 1446 1440 1434 1428 1422 1417 1412 1407 1404 1401 1398 1395 1391 1388 1385 1382 1380 1378 1377 1377 1377 1378 1379 1380 1381 1383 1384 1385 1386 1387 1387 1387 1387 1387 1387 1387 1388 1388
1543 1543 1543 1542 1542 1541 1540 1539 1539 1538 1537 1537 1536 1534 1533 1532 1531 1529 1528 1526 1524 1523 1523 1521 1519 1518 1516 1514 1513 1511 1509 1506 1503 1500 1497 1493 1490 1487 1483 1479 1476 1472 1468 1464 1460 1456 1452 1446 1440 1434 1427 1421 1415 1410 1404 1400 1396 1394 1391 1388 1384 1382 1379 1377 1375 1375 1375 1375 1376 1377 1378 1380 1381 1382 1382 1383 1383 1384 1383 1383 1383 1384 1384 1385 1385
1543 1543 1543 1542 1541 1541 1539 1538 1539 1538 1537 1537 1536 1534 1532 1532 1530 1528 1527 1525 1524 1523 1522 1520 1519 1517 1515 1514 1512 1510 1507 1505 1502 1499 1495 1492 1489 1486 1482 1479 1476 1472 1468 1464 1460 1457 1453 1447 1441 1434 1428 1422 1415 1408 1403 1398 1394 1391 1389 1386 1382 1379 1377 1375 1374 1374 1374 1375 1376 1377 1378 1379 1380 1380 1380 1380 1381 1381 1381 1381 1381 1381 1382 1382 1382
1542 1542 1542 1541 1540 1540 1539 1538 1538 1538 1536 1536 1535 1533 1532 1531 1530 1528 1527 1525 1523 1522 1522 1520 1518 1516 1515 1513 1511 1509 1507 1504 1500 1497 1494 1491 1488 1485 1482 1478 1475 1471 1467 1463 1459 1456 1452 1446 1440 1434 1428 1422 1417 1410 1404 1399 1394 1391 1388 1385 1381 1378 1376 1374 1373 1373 1374 1375 1376 1377 1377 1377 1378 1379 1379 1379 1379 1379 1379 1379 1379 1379 1380 1379 1379
1542 1542 1541 1540 1540 1540 1539 1538 1538 1537 1536 1535 1534 1533 1532 1530 1529 1528 1526 1525 1523 1522 1521 1520 1518 1516 1515 1513 1510 1508 1506 1503 1500 1496 1493 1490 1487 1484 1481 1477 1474 1470 1466 1461 1458 1455 1451 1446 1440 1435 1429 1423 1418 1413 1407 1401 1396 1392 1388 1385 1382 1379 1377 1375 1373 1372 1373 1375 1376 1376 1377 1377 1377 1377 1377 1377 1378 1378 1378 1379 1379 1379 1378 1378 1376
1542 1541 1541 1540 1539 1539 1538 1537 1537 1537 1536 1534 1533 1533 1531 1530 1528 1527 1526 1524 1523 1522 1521 1519 1517 1516 1514 1512 1509 1507 1505 1502 1500 1497 1493 1490 1487 1484 1481 1477 1473 1470 1466 1463 1459 1456 1453 1448 1442 1435 1428 1422 1417 1412 1407 1402 1399 1395 1391 1386 1383 1381 1379 1377 1374 1373 1374 1375 1375 1376 1377 1377 1377 1376 1376 1376 1377 1378 1378 1378 1378 1378 1377 1376 1375
1541 1541 1540 1539 1538 1538 1538 1537 1536 1536 1535 1533 1532 1532 1531 1530 1528 1527 1525 1524 1523 1522 1520 1519 1517 1516 1514 1511 1509 1506 1504 1502 1500 1498 1495 1492 1489 1486 1483 1479 1475 1472 1469 1465 1461 1457 1453 1448 1442 1436 1429 1423 1418 1413 1409 1405 1402 1398 1393 1389 1385 1383 1380 1378 1377 1377 1376 1376 1376 1377 1377 1378 1377 1377 1377 1377 1378 1378 1378 1378 1377 1376 1376 1375 1374
1541 1540 1539 1538 1538 1538 1537 1536 1536 1535 1534 1533 1532 1531 1530 1529 1528 1526 1525 1524 1523 1522 1520 1518 1517 1516 1514 1512 1510 1508 1505 1503 1501 1499 1496 1494 1491 1488 1484 1481 1477 1474 1470 1467 1463 1459 1454 1449 1445 1440 1434 1429 1423 1418 1414 1411 1407 1402 1398 1394 1390 1387 1383 1381 1381 1381 1380 1380 1380 1380 1380 1380 1379 1379 1378 1378 1378 1378 1378 1377 1377 1375 1374 1374 1372
1540 1539 1538 1538 1537 1537 1537 1536 1535 1534 1533 1533 1532 1530 1529 1529 1528 1526 1525 1524 1523 1521 1520 1519 1517 1516 1515 1513 1511 1508 1506 1504 1501 1499 1496 1493 1491 1488 1484 1481 1478 1474 1470 1467 1463 1460 1456 1452 1448 1444 1439 1434 1430 1425 1421 1417 1413 1409 1404 1399 1395 1392 1389 1386 1385 1386 1385 1383 1383 1382 1382 1382 1381 1381 1380 1379 1379 1379 1378 1377 1376 1375 1373 1373 1372
1539 1538 1537 1537 1537 1536 1536 1535 1534 1533 1532 1532 1532 1531 1529 1528 1527 1526 1525 1524 1523 1522 1520 1519 1517 1516 1515 1513 1510 1507 1505 1503 1501 1498 1496 1493 1490 1487 1484 1481 1478 1474 1471 1468 1465 1462 1459 1455 1451 1447 1443 1439 1435 1431 1427 1424 1420 1415 1410 1405 1401 1398 1396 1394 1392 1391 1389 1388 1386 1386 1385 1385 1384 1383 1382 1381 1380 1380 1378 1377 1375 1374 1373 1372 1371
1537 1537 1536 1536 1536 1536 1535 1534 1533 1532 1531 1531 1531 1530 1529 1528 1527 1526 1524 1523 1523 1522 1520 1519 1517 1515 1514 1512 1510 1507 1505 1503 1500 1498 1495 1493 1490 1487 1484 1481 1478 1475 1472 1469 1466 1464 1461 1458 1455 1451 1448 1444 1440 1437 1433 1430 1426 1422 1416 1412 1408 1404 1402 1400 1397 1395 1394 1393 1392 1390 1389 1388 1387 1386 1384 1383 1382 1381 1379 1377 1376 1375 1373 1372 1371
1536 1536 1535 1535 1535 1535 1534 1532 1532 1531 1530 1530 1530 1529 1528 1527 1527 1526 1525 1524 1523 1521 1520 1518 1517 1515 1513 1512 1509 1507 1505 1503 1500 1498 1495 1493 1490 1487 1485 1482 1479 1476 1474 1471 1469 1466 1464 1460 1457 1454 1451 1447 1444 1441 1438 1434 1431 1427 1422 1418 1414 1410 1407 1404 1402 1399 1398 1397 1395 1394 1392 1391 1390 1388 1387 1385 1383 1382 1380 1378 1377 1375 1374 1373 1371
1535 1535 1534 1534 1534 1533 1532 1531 1531 1530 1529 1529 1529 1528 1527 1527 1526 1526 1526 1525 1523 1522 1521 1520 1518 1515 1513 1511 1509 1507 1504 1502 1500 1498 1496 1493 1491 1488 1484 1481 1478 1476 1474 1473 1471 1468 1466 1463 1460 1457 1454 1449 1446 1444 1441 1438 1434 1430 1426 1422 1418 1415 1412 1408 1405 1403 1402 1400 1398 1397 1395 1393 1392 1391 1389 1387 1385 1384 1382 1380 1379 1377 1375 1373 1371
1535 1534 1534 1533 1533 1532 1531 1530 1530 1529 1529 1528 1528 1527 1527 1526 1526 1525 1525 1524 1523 1523 1522 1522 1520 1517 1514 1511 1509 1506 1504 1502 1500 1499 1497 1494 1491 1488 1485 1482 1480 1478 1476 1474 1472 1470 1468 1465 1462 1460 1457 1453 1449 1447 1445 1441 1437 1433 1430 1426 1422 1418 1415 1412 1409 1407 1405 1403 1401 1399 1397 1395 1393 1392 1390 1389 1387 1386 1384 1383 1381 1379 1376 1374 1372
1534 1534 1533 1532 1532 1531 1530 1529 1529 1529 1528 1528 1528 1527 1526 1526 1525 1525 1525 1524 1523 1522 1522 1521 1519 1517 1514 1511 1509 1506 1504 1503 1502 1500 1498 1495 1493 1490 1487 1485 1482 1480 1478 1476 1474 1472 1469 1467 1464 1462 1459 1455 1452 1449 1447 1444 1440 1437 1433 1429 1426 1422 1419 1416 1413 1410 1408 1406 1404 1402 1400 1398 1396 1394 1392 1391 1389 1388 1386 1385 1382 1380 1378 1376 1374
1533 1532 1532 1531 1530 1530 1530 1529 1528 1528 1528 1528 1527 1526 1525 1525 1525 1524 1524 1523 1522 1522 1521 1520 1518 1516 1513 1511 1509 1506 1504 1503 1503 1501 1498 1496 1493 1491 1489 1487 1485 1482 1480 1478 1476 1473 1471 1468 1465 1463 1460 1457 1454 1451 1449 1446 1442 1439 1435 1432 1429 1426 1423 1420 1416 1413 1411 1408 1405 1403 1402 1400 1398 1396 1395 1393 1392 1390 1388 1386 1384 1381 1379 1376 1374
1531 1530 1530 1530 1529 1529 1529 1528 1528 1528 1527 1527 1527 1526 1525 1524 1524 1523 1523 1523 1522 1521 1520 1519 1518 1516 1513 1511 1509 1506 1504 1504 1503 1501 1498 1497 1495 1493 1491 1489 1486 1483 1481 1479 1477 1475 1472 1469 1467 1464 1462 1459 1455 1453 1451 1448 1444 1440 1437 1434 1431 1427 1424 1421 1418 1415 1413 1410 1408 1406 1404 1402 1400 1398 1397 1396 1393 1391 1389 1388 1386 1383 1380 1378 1375
1529 1529 1529 1529 1528 1528 1527 1527 1527 1527 1526 1526 1526 1525 1524 1524 1523 1523 1522 1522 1521 1520 1520 1519 1518 1516 1513 1512 1510 1507 1505 1505 1504 1502 1500 1498 1496 1494 1492 1490 1487 1484 1482 1480 1478 1476 1473 1471 1468 1465 1463 1460 1457 1455 1453 1449 1445 1442 1439 1435 1432 1429 1426 1423 1420 1417 1415 1413 1410 1408 1406 1404 1402 1400 1399 1397 1395 1393 1391 1389 1387 1384 1382 1379 1376
1528 1528 1528 1528 1527 1527 1526 1526 1526 1526 1525 1525 1525 1524 1524 1523 1523 1522 1521 1521 1520 1519 1519 1518 1517 1515 1514 1512 1510 1508 1507 1506 1504 1503 1500 1498 1496 1494 1492 1490 1488 1485 1483 1481 1479 1477 1474 1472 1469 1466 1464 1462 1459 1456 1454 1451 1447 1443 1440 1437 1434 1431 1428 1425 1422 1419 1417 1415 1412 1410 1408 1406 1403 1401 1400 1399 1396 1394 1392 1390 1387 1385 1383 1380 1377
1528 1527 1527 1526 1526 1526 1526 1526 1526 1525 1525 1524 1523 1523 1523 1522 1522 1521 1521 1520 1520 1519 1518 1518 1517 1516 1514 1512 1510 1509 1507 1506 1505 1503 1501 1499 1497 1495 1493 1491 1488 1486 1483 1482 1480 1477 1474 1472 1470 1467 1465 1463 1460 1457 1454 1452 1448 1445 1442 1438 1435 1432 1429 1426 1424 1421 1419 1416 1414 1411 1410 1407 1405 1403 1402 1400 1397 1395 1393 1390 1388 1386 1383 1380 1377
1527 1526 1526 1526 1526 1525 1525 1525 1525 1524 1524 1523 1523 1523 1522 1521 1521 1521 1520 1520 1519 1518 1518 1517 1517 1516 1514 1512 1510 1509 1508 1506 1505 1503 1501 1499 1497 1495 1493 1491 1488 1486 1484 1482 1480 1477 1475 1473 1471 1468 1466 1465 1462 1459 1456 1453 1450 1446 1443 1440 1437 1434 1431 1428 1425 1422 1420 1417 1415 1413 1411 1409 1406 1404 1404 1402 1399 1396 1394 1391 1389 1387 1384 1381 1378
1525 1525 1525 1524 1524 1524 1524 1524 1524 1523 1523 1522 1522 1521 1521 1521 1521 1520 1519 1519 1518 1517 1517 1517 1516 1515 1514 1512 1511 1509 1507 1506 1505 1503 1501 1499 1497 1495 1493 1491 1489 1486 1484 1482 1480 1478 1475 1473 1471 1469 1467 1466 1463 1460 1457 1455 1451 1448 1445 1441 1438 1435 1432 1429 1427 1424 1421 1419 1416 1414 1413 1410 1407 1406 1405 1403 1400 1397 1395 1392 1390 1387 1384 1382 1379
1523 1523 1523 1523 1523 1523 1523 1523 1523 1522 1522 1521 1521 1521 1521 1521 1520 1519 1518 1518 1517 1516 1516 1516 1516 1515 1513 1512 1510 1509 1507 1506 1505 1503 1501 1499 1497 1495 1493 1491 1488 1486 1484 1482 1480 1477 1475 1473 1472 1470 1468 1466 1463 1461 1458 1455 1452 1449 1446 1443 1440 1437 1434 1431 1429 1426 1424 1421 1419 1416 1414 1411 1409 1408 1407 1405 1402 1399 1397 1394 1391 1389 1386 1383 1380
1522 1522 1522 1522 1522 1522 1522 1522 1522 1521 1521 1521 1521 1521 1521 1520 1519 1518 1517 1517 1516 1516 1515 1515 1515 1514 1513 1511 1510 1509 1507 1506 1504 1503 1501 1499 1497 1495 1493 1491 1489 1486 1484 1482 1480 1477 1475 1473 1472 1470 1468 1466 1463 1461 1458 1456 1453 1450 1448 1445 1442 1439 1436 1433 1431 1428 1426 1423 1421 1418 1416 1413 1411 1410 1409 1406 1403 1401 1398 1396 1393 1391 1388 1385 1382
1520 1520 1520 1520 1520 1520 1521 1520 1520 1520 1520 1520 1520 1520 1520 1519 1518 1518 1517 1516 1515 1515 1515 1515 1514 1513 1512 1511 1509 1508 1507 1505 1504 1502 1501 1499 1497 1495 1493 1491 1489 1487 1484 1482 1480 1477 1475 1474 1472 1470 1468 1466 1464 1461 1459 1456 1454 1451 1448 1446 1443 1440 1437 1435 1432 1429 1427 1425 1423 1420 1417 1414 1412 1412 1410 1407 1404 1402 1400 1397 1395 1392 1390 1387 1384
1518 1518 1518 1518 1518 1518 1518 1518 1518 1519 1519 1518 1518 1518 1518 1518 1517 1517 1516 1515 1515 1515 1514 1514 1513 1512 1511 1510 1509 1507 1506 1505 1503 1502 1500 1498 1497 1495 1493 1491 1489 1487 1484 1482 1480 1478 1476 1474 1472 1470 1468 1466 1464 1461 1459 1456 1454 1451 1448 1446 1443 1441 1439 1436 1433 1430 1428 1426 1424 1421 1418 1415 1415 1414 1412 1408 1405 1403 1401 1399 1396 1394 1392 1389 1386
1516 1516 1516 1516 1517 1517 1517 1517 1517 1517 1517 1517 1516 1516 1516 1516 1516 1516 1515 1515 1514 1514 1513 1512 1512 1511 1510 1509 1508 1507 1506 1504 1503 1501 1500 1498 1496 1495 1493 1491 1489 1487 1485 1482 1480 1478 1476 1474 1472 1470 1468 1467 1464 1462 1459 1457 1454 1451 1448 1446 1444 1442 1440 1437 1435 1432 1429 1426 1424 1422 1419 1417 1416 1415 1412 1409 1407 1405 1403 1401 1398 1396 1394 1391 1387
1514 1514 1514 1514 1515 1515 1515 1515 1515 1515 1515 1515 1515 1515 1515 1515 1515 1515 1514 1513 1513 1513 1512 1511 1511 1510 1509 1508 1507 1506 1505 1503 1502 1501 1499 1498 1496 1494 1493 1491 1489 1487 1485 1483 1481 1478 1476 1474 1472 1470 1468 1466 1464 1462 1460 1457 1454 1451 1449 1446 1444 1442 1440 1437 1435 1433 1430 1427 1425 1422 1419 1418 1417 1415 1413 1411 1408 1406 1404 1402 1399 1397 1396 1393 1390
1511 1511 1512 1512 1513 1513 1514 1514 1514 1514 1513 1513 1514 1514 1514 1514 1514 1513 1512 1512 1512 1511 1511 1510 1510 1509 1507 1506 1506 1505 1504 1503 1502 1500 1499 1497 1496 1494 1492 1490 1489 1487 1485 1483 1481 1479 1477 1475 1473 1471 1468 1466 1464 1462 1460 1457 1455 1452 1450 1447 1445 1443 1440 1438 1435 1433 1430 1428 1426 1422 1420 1418 1417 1415 1413 1411 1409 1407 1406 1404 1402 1399 1398 1395 1392